Date String (YYYY-MM-DD hh:mm:ss) UTC,Instrument flags,Ambient pressure (hPa),Sample flow (lpm),Bypass flow (lpm),Sample temperature (°C),Ambient temperature (°C),ASC tube jacket temperature (°C),LED temperature (°C),Box temperature (°C),Sample RH (%),Span deviation,Mass concentration (μg/m³),Mass concentration (μg/m³),Mass concentration (μg/m³)
DateTimeUTC,F1_M11,P_M11,Q1_M11,Q2_M11,T1_M11,T2_M11,T3_M11,T4_M11,T5_M11,U1_M11,ZSPAN_M11,X2_M11,X0_M11,X1_M11
2023-03-07 06:00:00,,0825.0,5.00,0.00,22.6,22.1,00.0,31.2,24.4,15.9,0000.0,0006.78,0009.74,0006.57
2023-03-07 06:01:00,,0825.0,5.01,0.00,22.6,21.7,00.0,31.2,24.3,15.9,0000.0,0006.78,0010.05,0006.56
2023-03-07 06:02:00,,0825.0,5.00,0.00,22.6,21.5,00.0,31.3,24.2,15.9,0000.0,0006.79,0010.31,0006.57
2023-03-07 06:03:00,,0824.9,5.01,0.00,22.5,21.2,00.0,31.3,24.2,15.9,0000.0,0006.79,0010.44,0006.56
2023-03-07 06:04:00,,0825.0,5.00,0.00,22.5,21.1,00.0,31.3,24.1,16.0,0000.0,0006.81,0010.44,0006.57
2023-03-07 06:05:00,,0825.0,4.99,0.00,22.5,20.9,00.0,31.3,24.1,16.0,0000.0,0006.80,0010.41,0006.57
2023-03-07 06:06:00,,0825.0,5.01,0.00,22.5,20.8,00.0,31.2,24.0,16.0,0000.0,0006.85,0010.76,0006.59
2023-03-07 06:07:00,,0825.0,5.00,0.00,22.4,20.7,00.0,31.2,24.0,16.0,0000.0,0006.91,0010.86,0006.64
2023-03-07 06:08:00,,0825.0,4.98,0.00,22.4,20.6,00.0,31.2,23.9,16.1,0000.0,0006.95,0010.90,0006.68
2023-03-07 06:09:00,,0825.0,5.00,0.00,22.4,20.5,00.0,31.2,23.9,16.1,0000.0,0007.00,0011.05,0006.71
2023-03-07 06:10:00,,0825.0,5.00,0.00,22.3,20.5,00.0,31.2,23.9,16.1,0000.0,0007.02,0011.08,0006.75
2023-03-07 06:11:00,,0825.0,5.03,0.00,22.4,21.2,00.0,31.2,24.1,16.1,0000.0,0007.05,0010.86,0006.80
2023-03-07 06:12:00,,0825.0,4.99,0.00,22.5,22.3,00.0,31.1,24.4,16.1,0000.0,0007.10,0010.54,0006.86
2023-03-07 06:13:00,,0825.0,5.00,0.00,22.6,23.0,00.0,31.2,24.5,16.0,0000.0,0007.14,0010.33,0006.90
2023-03-07 06:14:00,,0825.0,4.98,0.00,22.6,22.7,00.0,31.2,24.5,15.9,0000.0,0007.17,0010.08,0006.93
2023-03-07 06:15:00,,0825.0,5.00,0.00,22.6,22.2,00.0,31.3,24.4,15.9,0000.0,0007.18,0010.07,0006.96
2023-03-07 06:16:00,,0825.0,5.02,0.00,22.6,21.9,00.0,31.3,24.4,15.9,0000.0,0007.22,0010.16,0007.00
2023-03-07 06:17:00,,0824.9,5.00,0.00,22.6,21.7,00.0,31.3,24.3,15.9,0000.0,0007.23,0009.95,0007.01
2023-03-07 06:18:00,,0824.9,5.00,0.00,22.6,21.4,00.0,31.3,24.3,16.0,0000.0,0007.20,0009.73,0007.00
2023-03-07 06:19:00,,0824.9,5.01,0.00,22.6,21.3,00.0,31.3,24.3,16.0,0000.0,0007.24,0009.84,0007.02
2023-03-07 06:20:00,,0824.9,4.98,0.00,22.6,21.1,00.0,31.3,24.2,16.0,0000.0,0007.26,0009.76,0007.06
2023-03-07 06:21:00,,0824.9,5.02,0.00,22.5,21.0,00.0,31.3,24.2,16.0,0000.0,0007.30,0009.82,0007.10
2023-03-07 06:22:00,,0824.9,4.99,0.00,22.5,20.9,00.0,31.3,24.1,16.0,0000.0,0007.39,0010.21,0007.15
2023-03-07 06:23:00,,0824.9,5.00,0.00,22.5,20.8,00.0,31.3,24.1,16.1,0000.0,0007.45,0010.40,0007.21
2023-03-07 06:24:00,,0824.9,4.99,0.00,22.5,20.7,00.0,31.3,24.0,16.1,0000.0,0007.50,0010.66,0007.25
2023-03-07 06:25:00,,0824.9,5.00,0.00,22.4,20.6,00.0,31.2,24.0,16.1,0000.0,0007.56,0010.71,0007.33
2023-03-07 06:26:00,,0824.9,5.00,0.00,22.4,20.5,00.0,31.2,24.0,16.1,0000.0,0007.62,0010.74,0007.39
2023-03-07 06:27:00,,0824.9,4.99,0.00,22.4,20.5,00.0,31.2,23.9,16.2,0000.0,0007.64,0010.67,0007.42
2023-03-07 06:28:00,,0824.9,4.99,0.00,22.3,20.4,00.0,31.2,23.9,16.2,0000.0,0007.67,0010.67,0007.46
2023-03-07 06:29:00,,0824.9,5.00,0.00,22.3,20.4,00.0,31.2,23.8,16.2,0000.0,0007.73,0010.74,0007.52
2023-03-07 06:30:00,,0824.9,5.00,0.00,22.3,20.9,00.0,31.2,23.9,16.3,0000.0,0007.77,0010.78,0007.54
2023-03-07 06:31:00,,0824.9,5.00,0.00,22.4,22.0,00.0,31.1,24.2,16.2,0000.0,0007.81,0010.85,0007.56
2023-03-07 06:32:00,,0824.9,5.02,0.00,22.5,23.0,00.0,31.2,24.4,16.1,0000.0,0007.84,0010.85,0007.57
2023-03-07 06:33:00,,0824.9,5.01,0.00,22.6,22.8,00.0,31.2,24.5,16.1,0000.0,0007.81,0010.58,0007.56
2023-03-07 06:34:00,,0824.9,5.00,0.00,22.6,22.4,00.0,31.2,24.4,16.0,0000.0,0007.79,0010.70,0007.55
2023-03-07 06:35:00,,0824.8,5.02,0.00,22.6,22.0,00.0,31.2,24.4,16.0,0000.0,0007.80,0011.13,0007.55
2023-03-07 06:36:00,,0824.8,5.01,0.00,22.6,21.8,00.0,31.2,24.3,16.1,0000.0,0007.81,0011.19,0007.53
2023-03-07 06:37:00,,0824.7,5.00,0.00,22.6,21.6,00.0,31.3,24.3,16.1,0000.0,0007.81,0011.79,0007.52
2023-03-07 06:38:00,,0824.7,5.02,0.00,22.6,21.3,00.0,31.3,24.3,16.1,0000.0,0007.83,0012.62,0007.52
2023-03-07 06:39:00,,0824.7,5.00,0.00,22.5,21.2,00.0,31.3,24.2,16.1,0000.0,0007.82,0012.61,0007.52
2023-03-07 06:40:00,,0824.6,5.00,0.00,22.5,21.1,00.0,31.3,24.2,16.1,0000.0,0007.83,0012.62,0007.54
2023-03-07 06:41:00,,0824.6,5.01,0.00,22.5,21.0,00.0,31.3,24.1,16.1,0000.0,0007.80,0013.13,0007.54
2023-03-07 06:42:00,,0824.6,5.00,0.00,22.5,20.9,00.0,31.3,24.1,16.2,0000.0,0007.79,0013.11,0007.53
2023-03-07 06:43:00,,0824.6,5.00,0.00,22.5,20.8,00.0,31.3,24.1,16.2,0000.0,0007.78,0013.13,0007.52
2023-03-07 06:44:00,,0824.6,5.01,0.00,22.5,20.7,00.0,31.2,24.1,16.2,0000.0,0007.78,0013.34,0007.50
2023-03-07 06:45:00,,0824.7,5.01,0.00,22.4,20.7,00.0,31.2,24.1,16.2,0000.0,0007.78,0013.42,0007.49
2023-03-07 06:46:00,,0824.6,5.00,0.00,22.4,20.6,00.0,31.2,24.0,16.2,0000.0,0007.79,0012.82,0007.49
2023-03-07 06:47:00,,0824.5,5.01,0.00,22.4,20.6,00.0,31.2,24.0,16.2,0000.0,0007.79,0012.82,0007.50
2023-03-07 06:48:00,,0824.6,5.01,0.00,22.4,20.6,00.0,31.2,24.0,16.2,0000.0,0007.83,0012.40,0007.51
2023-03-07 06:49:00,,0824.7,5.00,0.00,22.3,20.6,00.0,31.2,23.9,16.3,0000.0,0007.85,0011.67,0007.53
2023-03-07 06:50:00,,0824.8,5.03,0.00,22.4,21.3,00.0,31.1,24.1,16.3,0000.0,0007.86,0011.70,0007.53
2023-03-07 06:51:00,,0824.9,5.02,0.00,22.5,22.4,00.0,31.1,24.4,16.2,0000.0,0007.86,0011.71,0007.53
2023-03-07 06:52:00,,0824.6,5.04,0.00,22.6,23.1,00.0,31.2,24.6,16.1,0000.0,0007.90,0011.11,0007.57
2023-03-07 06:53:00,,0824.6,5.02,0.00,22.6,22.7,00.0,31.2,24.5,16.0,0000.0,0007.98,0011.10,0007.65
2023-03-07 06:54:00,,0824.7,5.01,0.00,22.7,22.3,00.0,31.3,24.4,16.0,0000.0,0008.06,0011.10,0007.73
2023-03-07 06:55:00,,0824.7,5.00,0.00,22.6,21.9,00.0,31.3,24.4,16.0,0000.0,0008.18,0011.15,0007.82
2023-03-07 06:56:00,,0824.7,5.01,0.00,22.6,21.6,00.0,31.3,24.3,16.0,0000.0,0008.27,0010.98,0007.90
2023-03-07 06:57:00,,0824.5,5.01,0.00,22.6,21.3,00.0,31.3,24.3,16.0,0000.0,0008.30,0010.92,0007.95
2023-03-07 06:58:00,,0824.7,5.00,0.00,22.6,21.1,00.0,31.3,24.2,16.1,0000.0,0008.35,0010.92,0008.01
2023-03-07 06:59:00,,0824.7,5.00,0.00,22.5,20.9,00.0,31.3,24.1,16.1,0000.0,0008.36,0011.02,0008.04
